Memphis, TN

3:40 PM CST on November 17, 2017 (GMT -0600)
Memphis International

Weather History for KMEM - March, 2013

Change the Weather History Date:

Monday, March 18, 2013

  Actual Average Record
Temperature  
Mean Temperature 57 °F 55 °F  
Max Temperature 70 °F 65 °F 85 °F (1908)
Min Temperature 43 °F 45 °F 19 °F (1892)
Degree Days  
Heating Degree Days 8 11  
Month to date heating degree days 278 239  
Since 1 July heating degree days 2476 2689  
Cooling Degree Days 0 1  
Month to date cooling degree days 2 3  
Year to date cooling degree days 11 6  
Growing Degree Days 2 (Base 50)    
Moisture  
Dew Point 49 °F    
Average Humidity 78    
Maximum Humidity 89    
Minimum Humidity 66    
Precipitation  
Precipitation 0.37 in 0.16 in 2.39 in (1897)
Month to date precipitation 1.86 2.88  
Year to date precipitation 15.43 11.25  
Snow  
Snow 0.00 in 0.00 in T in (1965)
Month to date snowfall T 0.3  
Since 1 July snowfall 0.9 3.7  
Snow Depth 0.00 in    
Sea Level Pressure  
Sea Level Pressure 29.80 in    
Wind  
Wind Speed 8 mph (NW)    
Max Wind Speed 24 mph    
Max Gust Speed 33 mph    
Visibility 8 miles    
Events Rain , Thunderstorm    
T = Trace of Precipitation, MM = Missing Value Source: NWS Daily Summary

Daily Weather History Graph

Daily Weather History Graph

Search for Another Location

Airport or City:

Trip Planner

Search our weather history database for the weather conditions in past years. The results will help you decide how hot, cold, wet, or windy it might be!

Date:

Astronomy

Mar. 18, 2013 Rise Set
Actual Time 7:05 AM CDT 7:10 PM CDT
Civil Twilight 6:40 AM CDT 7:35 PM CDT
Nautical Twilight 6:11 AM CDT 8:04 PM CDT
Astronomical Twilight 5:41 AM CDT 8:34 PM CDT
Moon 11:18 AM CDT (3/18) 12:57 AM CDT (3/18)
Length of Visible Light 12h 54m
Length of Day
12h 04m
Waxing Crescent, 41% of the Moon is Illuminated
Mar 18
Waxing Crescent
Mar 19
First Quarter
Mar 27
Full
Apr 2
Last Quarter
Apr 10
New

Hourly Weather History & Observations

Time (CDT) Temp. Dew Point Humidity Pressure Visibility Wind Dir Wind Speed Gust Speed Precip Events Conditions
12:54 AM 66.9 °F 55.0 °F 66% 29.69 in 10.0 mi SSW 10.4 mph - N/A   Overcast
1:54 AM 70.0 °F 57.0 °F 63% 29.68 in 10.0 mi SSW 15.0 mph 26.5 mph N/A   Overcast
2:54 AM 68.0 °F 57.9 °F 70% 29.68 in 10.0 mi SSW 15.0 mph 25.3 mph 0.00 in   Overcast
3:22 AM 60.8 °F 53.6 °F 77% 29.69 in 10.0 mi WNW 11.5 mph - 0.00 in   Overcast
3:54 AM 54.0 °F 50.0 °F 86% 29.69 in 8.0 mi West 8.1 mph - 0.00 in Thunderstorm Thunderstorm
4:29 AM 53.6 °F 51.8 °F 94% 29.69 in 8.0 mi WNW 5.8 mph - 0.00 in   Overcast
4:54 AM 55.0 °F 52.0 °F 89% 29.68 in 8.0 mi Calm Calm - 0.00 in   Overcast
5:54 AM 57.9 °F 54.0 °F 87% 29.69 in 8.0 mi WSW 8.1 mph - 0.01 in Rain Light Rain
6:07 AM 53.6 °F 51.8 °F 94% 29.72 in 8.0 mi WNW 17.3 mph 21.9 mph 0.00 in Rain Light Rain
6:31 AM 51.8 °F 50.0 °F 94% 29.73 in 4.0 mi WNW 9.2 mph - 0.01 in Rain Light Rain
6:50 AM 51.8 °F 48.2 °F 88% 29.73 in 6.0 mi WNW 6.9 mph - 0.02 in Rain Light Rain
6:54 AM 51.1 °F 48.9 °F 92% 29.74 in 5.0 mi WNW 6.9 mph - 0.02 in Rain Light Rain
7:45 AM 51.8 °F 48.2 °F 88% 29.76 in 7.0 mi West 5.8 mph - 0.00 in Rain Light Rain
7:54 AM 51.1 °F 48.9 °F 92% 29.75 in 7.0 mi Calm Calm - 0.00 in   Overcast
8:21 AM 51.8 °F 50.0 °F 94% 29.77 in 5.0 mi WNW 4.6 mph - 0.00 in   Overcast
8:54 AM 53.1 °F 50.0 °F 89% 29.78 in 6.0 mi WNW 8.1 mph - 0.00 in   Overcast
9:15 AM 51.8 °F 48.2 °F 88% 29.78 in 4.0 mi West 3.5 mph - 0.00 in Rain , Thunderstorm Light Thunderstorms and Rain
9:25 AM 51.8 °F 48.2 °F 88% 29.78 in 2.0 mi WNW 8.1 mph - 0.06 in Rain , Thunderstorm Heavy Thunderstorms and Rain
9:38 AM 53.6 °F 50.0 °F 88% 29.76 in 5.0 mi Calm Calm - 0.08 in Thunderstorm Overcast
9:49 AM 53.6 °F 50.0 °F 88% 29.78 in 6.0 mi NW 10.4 mph - 0.08 in   Overcast
9:54 AM 53.1 °F 50.0 °F 89% 29.77 in 6.0 mi Calm Calm - 0.08 in   Overcast
10:54 AM 53.1 °F 50.0 °F 89% 29.80 in 7.0 mi NNW 10.4 mph - 0.00 in Rain Light Rain
11:12 AM 51.8 °F 48.2 °F 88% 29.82 in 6.0 mi NNW 8.1 mph - 0.00 in Rain , Thunderstorm Light Thunderstorms and Rain
11:35 AM 51.8 °F 48.2 °F 88% 29.82 in 2.0 mi NNW 15.0 mph 18.4 mph 0.09 in Rain , Thunderstorm Heavy Thunderstorms and Rain
11:47 AM 51.8 °F 48.2 °F 88% 29.87 in 4.0 mi WNW 10.4 mph 28.8 mph 0.14 in Rain Light Rain
11:54 AM 51.1 °F 48.9 °F 92% 29.85 in 8.0 mi NW 8.1 mph - 0.14 in Rain Light Rain
12:06 PM 51.8 °F 48.2 °F 88% 29.86 in 5.0 mi WNW 4.6 mph - 0.02 in Rain , Thunderstorm Thunderstorms and Rain
12:38 PM 51.8 °F 48.2 °F 88% 29.80 in 6.0 mi Calm Calm - 0.10 in Rain Rain
12:54 PM 54.0 °F 50.0 °F 86% 29.73 in 7.0 mi SSE 12.7 mph - 0.12 in Rain Light Rain
1:34 PM 53.6 °F 48.2 °F 82% 29.79 in 10.0 mi NW 12.7 mph - 0.00 in   Overcast
1:54 PM 53.1 °F 48.9 °F 86% 29.77 in 10.0 mi NNW 9.2 mph - 0.00 in   Overcast
2:14 PM 53.6 °F 48.2 °F 82% 29.77 in 10.0 mi NNW 9.2 mph - N/A   Overcast
2:54 PM 57.0 °F 50.0 °F 77% 29.76 in 10.0 mi NW 16.1 mph 21.9 mph N/A   Overcast
3:07 PM 55.4 °F 48.2 °F 77% 29.77 in 10.0 mi NNW 17.3 mph 26.5 mph N/A   Overcast
3:45 PM 53.6 °F 48.2 °F 82% 29.82 in 10.0 mi NNW 12.7 mph - N/A   Overcast
3:54 PM 54.0 °F 46.9 °F 77% 29.82 in 10.0 mi NNW 13.8 mph - N/A   Mostly Cloudy
4:54 PM 53.1 °F 45.0 °F 74% 29.85 in 10.0 mi North 10.4 mph - N/A   Overcast
5:54 PM 54.0 °F 46.0 °F 75% 29.87 in 10.0 mi NNW 10.4 mph - N/A   Overcast
6:31 PM 53.6 °F 44.6 °F 72% 29.89 in 10.0 mi North 9.2 mph - N/A   Mostly Cloudy
6:54 PM 53.1 °F 45.0 °F 74% 29.90 in 10.0 mi North 8.1 mph - N/A   Mostly Cloudy
7:52 PM 51.8 °F 44.6 °F 76% 29.92 in 10.0 mi North 8.1 mph - N/A   Scattered Clouds
7:54 PM 52.0 °F 45.0 °F 77% 29.93 in 10.0 mi North 8.1 mph - N/A   Scattered Clouds
8:54 PM 50.0 °F 45.0 °F 83% 29.95 in 10.0 mi North 5.8 mph - N/A   Partly Cloudy
9:54 PM 48.9 °F 42.1 °F 77% 29.99 in 10.0 mi North 5.8 mph - N/A   Clear
10:54 PM 48.9 °F 42.1 °F 77% 30.03 in 10.0 mi Calm Calm - N/A   Clear
11:54 PM 46.0 °F 41.0 °F 83% 30.05 in 10.0 mi Calm Calm - N/A   Clear